Temperature
17 17 16 16 15 14 14 13 13 12 12 12 12 12 11 11 11 11 11 11 11 11 11 11 11 11 11 11 11 11 12 12 13 13 13 14 14 14 14 14 14 14 15
17 17 16 16 15 14 14 13 13 13 12 12 12 12 11 11 11 11 11 11 11 10 10 10 10 10 10 11 11 11 11 11 12 12 12 13 13 13 14 14 14 14 14
17 17 16 16 15 15 14 14 13 13 12 12 12 12 11 11 11 11 11 11 10 10 10 10 10 10 10 10 10 10 11 11 11 11 12 12 13 13 13 13 14 14 14
18 17 16 16 16 15 14 14 13 13 12 12 12 12 11 11 11 11 10 10 10 10 10 10 10 10 10 10 10 10 10 10 10 11 11 12 12 13 13 13 13 14 14
18 17 17 16 16 15 15 14 14 13 13 12 12 11 11 11 11 11 10 10 10 10 10 10 9 9 9 10 10 10 10 10 10 10 10 11 12 12 13 13 13 13 13
18 17 17 16 16 15 15 14 14 13 13 12 12 12 11 11 11 11 10 10 10 10 10 9 9 9 10 10 10 10 10 10 10 10 10 10 11 12 12 12 13 13 13
18 18 17 16 16 15 15 14 14 13 13 13 12 12 11 11 10 10 10 10 10 10 10 9 9 9 9 10 9 9 9 10 10 9 9 10 10 11 11 11 12 12 12
18 18 17 16 16 15 15 15 14 14 13 13 12 12 11 11 10 10 10 10 10 10 10 9 9 9 9 9 9 9 9 9 9 9 9 10 10 10 10 10 10 11 11
18 17 17 16 16 16 15 15 15 14 14 13 12 11 11 11 10 10 10 9 9 9 9 9 9 9 9 9 9 9 9 9 9 9 9 9 9 10 10 10 10 10 10
18 17 17 17 16 16 15 15 15 14 14 13 12 11 11 11 10 10 10 9 9 9 9 9 9 9 9 9 9 9 8 9 8 8 9 9 9 9 9 9 9 9 9
18 17 17 16 16 16 15 15 15 14 13 13 12 12 11 11 11 10 10 9 9 9 9 9 9 9 9 9 9 8 8 8 8 8 8 8 8 9 9 9 9 9 9
18 17 17 16 16 15 15 15 14 14 13 12 12 12 11 11 11 11 10 10 9 9 9 9 9 9 9 9 8 8 8 8 7 7 7 8 8 8 9 9 9 9 10
17 17 16 16 16 15 15 14 14 13 12 12 12 12 12 11 11 11 10 10 9 9 9 9 8 8 8 8 8 8 8 7 7 7 7 7 8 8 8 9 9 9 9
16 16 16 15 15 15 14 14 13 13 12 12 12 12 11 11 11 10 10 9 9 9 9 8 8 8 8 8 8 8 8 8 7 7 7 7 7 8 8 9 9 9 9
15 15 15 14 14 14 14 13 13 13 13 12 12 12 11 11 11 10 10 9 9 8 8 8 8 8 8 8 8 8 8 7 7 7 7 7 7 7 8 8 9 9 9
14 14 14 14 14 14 13 13 13 13 13 13 12 12 12 11 11 10 10 9 9 9 8 8 8 8 8 8 8 8 8 8 8 8 7 7 7 7 8 8 8 9 9
13 13 13 13 13 13 13 13 13 13 13 13 12 12 12 11 11 10 10 9 9 8 8 8 8 8 8 8 8 8 8 8 8 8 8 8 7 7 7 8 8 8 9
12 12 12 12 12 12 13 13 12 13 12 12 12 12 12 11 11 10 10 9 9 9 8 8 8 8 8 8 8 8 8 8 8 8 8 8 8 7 7 7 8 8 8
11 11 11 12 12 12 12 12 12 12 12 12 12 11 11 11 11 10 10 9 9 9 8 8 8 8 8 8 8 8 8 8 8 8 8 8 8 7 7 7 7 8 8
10 11 11 11 11 12 12 12 12 12 12 11 11 11 11 10 10 10 10 9 9 9 8 8 8 8 8 8 8 8 8 8 8 8 8 8 8 7 7 7 7 8 8
9 10 10 10 11 11 11 11 11 11 11 11 11 11 10 10 10 10 9 9 9 9 8 8 8 8 8 8 8 8 8 8 8 8 8 8 8 8 8 8 8 8 8
8 9 9 9 10 10 10 10 10 10 10 10 10 10 10 10 9 9 9 9 9 8 8 8 8 8 8 8 8 8 8 8 8 8 8 8 8 8 8 8 8 8 8
8 8 8 8 9 9 9 9 9 9 9 9 9 10 9 9 9 9 9 8 8 8 8 8 8 8 8 8 8 8 8 8 8 8 8 8 8 8 8 8 8 8 8
7 7 7 7 8 8 8 8 8 9 9 9 9 9 9 8 8 8 8 8 7 7 7 7 7 7 8 8 8 8 8 8 8 8 8 8 8 8 8 8 8 8 8
6 6 6 6 6 7 7 7 7 8 8 8 8 8 7 7 7 7 7 7 7 7 7 7 7 7 7 8 8 8 8 8 8 8 8 8 8 8 8 8 8 8 9
5 5 5 5 5 5 6 6 6 7 7 7 7 7 6 6 6 6 6 6 6 7 7 7 7 7 7 7 7 8 8 8 8 8 8 8 8 8 8 8 8 8 9
Wind_Speed
5 4 3 3 4 5 5 6 6 6 6 6 6 7 7 7 7 7 7 8 8 7 7 8 7 7 6 5 6 6 6 5 7 6 6 5 3 3 2 4 6 7 10
7 6 6 6 6 6 6 6 5 6 6 6 6 7 7 8 7 7 8 8 7 7 8 8 8 8 7 6 6 7 6 6 6 8 7 7 7 5 5 5 5 7 8
8 7 7 7 6 6 6 6 6 6 6 6 7 7 7 7 7 7 7 7 8 8 7 8 8 8 8 7 7 7 6 8 6 6 7 6 6 6 5 5 6 5 6
7 7 7 6 6 6 6 6 6 6 6 6 7 7 7 7 7 8 8 7 7 7 7 7 8 8 8 8 8 8 8 7 7 7 7 7 7 7 5 5 5 5 5
6 6 6 6 6 5 5 6 6 6 8 6 6 7 7 8 9 7 5 7 6 6 7 7 9 10 11 9 9 7 6 5 6 6 7 7 7 6 5 5 6 5 6
7 7 6 6 5 5 5 6 6 6 6 6 7 8 8 9 3 2 3 6 7 8 8 8 9 11 13 16 16 14 10 9 7 7 7 7 7 6 5 6 5 4 4
9 8 7 6 6 6 6 5 5 5 6 7 7 8 8 8 8 8 9 6 8 9 9 8 11 12 10 7 10 15 15 16 14 10 10 10 9 8 6 7 7 6 5
10 9 8 7 6 5 5 5 5 5 6 6 7 8 8 10 10 11 11 9 9 10 10 10 11 11 12 9 8 8 8 10 12 12 12 12 12 9 7 6 7 8 7
11 10 8 7 6 5 5 5 5 5 6 7 8 8 8 9 10 12 12 8 9 11 11 12 11 11 12 12 8 8 8 8 12 15 15 14 15 13 8 5 6 6 7
10 9 8 7 6 5 5 5 6 6 7 8 8 8 8 8 10 12 13 8 10 10 9 9 13 13 13 11 8 8 9 8 8 9 9 11 13 13 14 10 8 8 7
7 7 7 7 7 7 7 6 6 7 8 8 9 8 9 11 12 14 16 10 10 9 8 7 6 7 11 12 11 8 10 8 7 8 8 8 9 9 10 11 11 10 10
6 7 7 7 8 7 7 7 7 8 8 9 10 11 10 10 12 13 17 18 14 10 9 8 4 2 6 9 9 11 12 9 8 9 9 9 9 9 9 10 11 12 10
5 6 6 7 7 6 7 8 8 8 9 10 9 8 7 6 6 13 15 18 17 12 10 11 9 8 8 9 14 16 13 9 10 10 11 10 9 9 8 8 9 10 11
5 5 6 7 8 8 8 9 9 9 9 8 7 7 6 5 4 4 6 8 11 11 11 12 15 16 14 13 12 11 10 11 11 11 9 9 8 8 8 8 8 8 9
5 6 7 9 10 9 10 10 11 10 9 9 7 6 7 7 2 3 2 4 4 3 4 7 9 9 9 9 10 10 10 10 12 11 10 10 9 9 8 7 7 8 8
6 8 9 9 9 9 10 11 16 17 17 18 17 14 10 11 10 10 9 9 8 5 4 9 11 11 11 10 9 9 9 10 10 10 10 10 10 9 8 8 8 8 9
9 10 10 11 11 10 9 9 9 11 17 18 18 18 18 17 15 14 12 10 9 7 7 10 11 11 11 10 9 9 9 9 9 9 10 10 9 9 9 9 8 8 9
11 13 12 11 11 12 11 10 9 8 7 6 12 19 21 20 20 19 14 7 9 9 10 11 12 11 11 10 9 9 9 8 8 9 10 9 9 9 10 10 10 10 10
13 12 11 12 12 12 10 9 10 9 8 7 6 7 14 17 18 17 10 8 11 12 10 10 10 10 10 9 9 8 8 8 8 8 9 9 9 10 10 11 10 12 12
12 16 15 13 14 12 10 10 9 7 7 7 6 7 5 6 7 8 8 10 11 11 10 9 9 9 8 8 8 8 8 8 8 8 9 9 9 10 11 12 11 10 10
14 16 18 15 13 12 10 9 7 7 7 6 7 7 5 6 8 8 6 7 8 9 9 8 8 8 7 7 7 8 9 7 7 8 8 8 9 9 10 10 10 10 10
14 14 14 14 12 10 9 8 7 7 7 8 8 6 6 7 8 7 6 5 6 6 6 6 7 7 7 7 6 7 7 7 6 7 7 7 7 8 9 9 9 10 10
14 15 14 12 10 10 10 8 7 7 7 7 8 6 4 5 6 6 6 6 5 6 5 5 7 7 7 6 5 6 6 6 6 6 7 7 7 8 8 9 11 11 11
15 15 15 14 11 9 9 8 8 7 6 7 7 6 5 5 6 6 6 5 6 6 6 6 7 10 11 8 6 6 5 4 4 5 7 7 7 7 7 8 9 11 11
13 13 13 12 12 11 10 8 7 7 6 6 6 5 6 6 6 6 6 6 7 7 8 8 6 8 10 11 9 6 4 4 4 3 4 5 6 7 7 8 8 9 10
12 12 11 11 10 10 10 9 8 8 6 6 6 7 7 7 6 6 6 6 6 7 8 8 8 9 10 9 7 6 4 4 4 4 4 4 6 6 6 6 8 8 10
Wind_Direction
200 207 239 238 246 248 242 243 246 253 265 271 268 264 264 263 260 254 254 261 265 266 269 269 265 266 271 285 294 294 290 282 278 286 291 298 270 269 240 236 251 242 230
191 193 202 220 235 247 256 255 253 254 256 263 267 269 269 270 266 262 263 267 268 269 268 269 268 267 259 260 270 278 281 285 285 283 288 291 280 261 247 237 243 246 230
185 187 200 212 226 235 247 257 261 261 262 266 268 269 271 275 276 272 267 266 265 267 269 269 269 268 264 259 261 267 275 279 282 282 283 278 277 268 257 247 246 241 233
182 189 200 210 226 238 246 253 257 260 260 260 263 267 270 274 274 271 267 266 264 265 266 265 266 264 260 256 258 254 260 267 276 279 277 277 275 269 254 241 248 234 227
182 196 204 207 217 230 243 251 256 262 268 265 268 270 270 271 269 274 269 271 281 281 275 271 269 266 261 255 257 254 262 267 274 277 274 274 272 273 266 250 250 242 225
191 205 207 208 220 231 239 246 251 254 261 265 268 271 271 274 251 200 261 290 291 284 280 276 276 270 258 243 239 243 246 254 261 270 278 279 290 306 321 316 297 275 256
194 205 206 207 220 229 246 256 263 269 270 267 266 267 267 268 253 225 228 254 269 270 270 270 273 274 286 271 241 235 241 244 241 249 264 273 283 294 322 326 321 313 288
198 203 206 208 218 222 233 250 258 262 264 266 267 269 269 268 254 232 226 239 260 262 261 259 259 264 271 275 277 261 245 242 237 235 240 250 260 270 281 290 299 299 286
203 203 204 205 211 220 238 248 255 259 262 263 265 261 261 263 246 229 220 246 256 259 258 257 254 253 253 249 250 256 260 259 258 247 232 235 237 245 250 270 280 283 283
205 199 196 192 199 214 231 240 249 254 261 266 264 259 260 263 253 230 213 240 258 262 261 258 256 252 251 231 232 245 255 259 267 278 263 249 247 247 238 234 243 255 264
200 196 191 188 195 208 222 229 235 247 256 261 266 266 260 256 254 234 214 229 250 262 268 272 273 261 238 226 227 243 254 266 273 271 270 261 248 242 239 229 223 228 239
198 198 195 194 212 219 215 225 232 242 254 259 259 258 255 247 243 232 215 218 234 252 264 272 279 243 228 228 229 242 249 252 258 259 258 256 250 244 237 230 223 219 222
209 209 209 208 214 221 226 235 239 240 250 257 259 262 260 250 235 223 215 218 225 235 256 268 278 259 251 247 242 241 241 242 244 248 251 252 250 248 245 240 237 230 225
228 225 227 230 231 230 232 240 243 246 249 253 257 267 275 271 256 216 208 219 227 237 253 263 261 254 246 249 255 245 233 235 237 242 246 250 252 252 249 242 240 235 233
259 255 256 253 248 244 239 239 242 244 247 251 258 262 269 275 254 146 252 269 273 285 291 274 270 265 257 248 243 239 233 226 230 237 242 246 248 249 248 246 242 236 234
279 269 267 264 259 252 249 249 236 235 240 232 231 239 252 252 252 243 237 239 244 239 256 263 264 264 263 261 256 248 239 234 231 228 231 236 240 241 244 242 235 235 236
299 292 285 280 275 269 262 258 259 247 239 237 235 235 237 248 253 253 251 250 246 215 237 254 257 259 260 260 258 257 253 240 229 226 230 232 233 235 236 240 238 235 233
306 295 287 281 278 275 271 269 267 265 263 251 239 234 235 240 246 250 250 249 254 229 237 248 254 255 257 259 259 258 257 247 231 226 228 230 230 232 234 235 234 233 231
308 298 292 288 283 279 274 269 266 265 264 266 268 252 233 236 242 246 231 233 250 256 252 248 251 255 259 259 258 257 254 250 239 228 228 228 226 228 232 234 232 228 226
306 299 299 295 288 283 278 273 269 268 271 270 269 270 257 240 242 236 217 226 241 254 263 267 264 261 261 261 257 256 253 248 242 236 231 228 227 227 230 232 229 225 222
318 314 308 300 293 287 284 281 277 275 273 277 279 276 265 267 273 272 262 243 246 257 264 270 271 268 264 262 259 257 255 250 245 242 236 230 229 228 226 227 227 224 221
320 315 313 310 309 306 299 288 282 280 278 280 282 274 248 265 278 281 283 283 280 276 276 279 282 279 273 270 266 262 259 253 248 243 238 233 232 232 228 224 223 222 219
320 317 316 313 310 306 301 298 293 289 291 293 292 290 284 286 292 296 298 303 304 300 297 291 286 285 285 281 270 260 256 251 247 245 243 234 232 232 225 223 223 219 215
319 322 321 318 314 311 306 302 299 297 298 296 293 302 309 307 304 310 316 315 311 305 300 297 293 292 292 290 281 269 259 251 249 251 251 242 237 236 230 227 225 218 212
324 327 324 323 324 325 319 313 309 309 311 313 316 326 326 319 317 323 323 315 313 311 309 303 295 294 295 294 291 289 279 263 254 271 262 252 247 242 234 230 224 219 210
327 330 328 325 326 326 324 322 320 320 328 336 337 336 330 323 325 326 319 317 321 318 312 307 304 303 301 299 298 305 288 262 257 266 269 263 259 252 237 230 227 216 203
Height
1525 1525 1525 1525 1525 1524 1523 1523 1522 1521 1520 1519 1518 1517 1516 1516 1515 1514 1512 1512 1511 1510 1509 1509 1508 1508 1507 1507 1507 1507 1507 1507 1506 1505 1505 1504 1504 1503 1502 1501 1501 1501 1501
1522 1522 1522 1521 1521 1520 1520 1520 1519 1518 1517 1516 1515 1514 1513 1512 1511 1510 1508 1508 1507 1505 1505 1504 1503 1503 1503 1502 1502 1502 1502 1502 1502 1500 1500 1500 1499 1499 1498 1497 1497 1497 1497
1519 1519 1518 1518 1518 1517 1516 1516 1515 1514 1513 1512 1511 1509 1508 1507 1506 1505 1504 1502 1501 1501 1500 1499 1498 1498 1498 1497 1497 1497 1497 1498 1497 1496 1495 1495 1495 1495 1494 1493 1493 1493 1493
1516 1515 1515 1515 1514 1514 1513 1512 1511 1510 1509 1507 1506 1505 1504 1502 1501 1500 1498 1497 1496 1495 1495 1494 1493 1493 1492 1492 1492 1492 1492 1492 1492 1491 1491 1490 1490 1490 1490 1489 1489 1488 1488
1512 1512 1511 1511 1511 1510 1509 1508 1507 1506 1505 1503 1502 1500 1499 1498 1496 1495 1494 1493 1492 1490 1489 1488 1488 1487 1486 1486 1487 1487 1487 1487 1486 1486 1486 1486 1486 1486 1486 1485 1484 1484 1483
1507 1507 1507 1507 1507 1506 1505 1504 1503 1501 1500 1499 1497 1495 1494 1493 1492 1490 1488 1487 1485 1484 1483 1482 1481 1481 1480 1480 1480 1481 1481 1481 1481 1481 1481 1481 1481 1481 1481 1480 1480 1480 1479
1501 1502 1502 1502 1502 1502 1501 1501 1499 1497 1496 1494 1492 1490 1488 1487 1485 1484 1482 1481 1479 1478 1477 1476 1475 1475 1476 1475 1474 1474 1474 1475 1475 1475 1475 1475 1475 1476 1476 1475 1475 1475 1475
1496 1496 1497 1497 1497 1497 1497 1496 1494 1492 1490 1488 1486 1485 1483 1481 1480 1478 1476 1475 1473 1472 1471 1470 1469 1468 1469 1469 1469 1468 1468 1468 1468 1468 1468 1468 1469 1470 1471 1471 1471 1470 1470
1490 1491 1492 1493 1493 1493 1492 1491 1489 1487 1485 1483 1481 1479 1477 1475 1474 1472 1471 1469 1467 1466 1465 1464 1464 1463 1463 1463 1462 1462 1462 1462 1462 1462 1462 1462 1462 1463 1464 1465 1465 1466 1465
1485 1486 1487 1487 1487 1487 1486 1485 1484 1482 1480 1478 1475 1474 1472 1470 1468 1467 1465 1464 1462 1461 1460 1459 1459 1458 1457 1457 1456 1456 1455 1455 1455 1455 1455 1455 1455 1455 1457 1458 1459 1460 1460
1481 1482 1482 1481 1481 1480 1480 1479 1478 1476 1474 1472 1470 1468 1465 1464 1462 1461 1460 1458 1457 1456 1455 1454 1453 1452 1451 1451 1450 1450 1449 1449 1448 1447 1447 1447 1447 1448 1448 1449 1451 1452 1454
1476 1476 1475 1475 1474 1473 1473 1472 1471 1470 1468 1466 1464 1462 1460 1458 1457 1455 1454 1453 1451 1450 1449 1448 1447 1446 1445 1444 1443 1443 1442 1442 1440 1440 1439 1439 1440 1440 1441 1442 1444 1445 1446
1471 1470 1470 1469 1469 1468 1467 1466 1464 1463 1462 1460 1459 1457 1455 1453 1451 1450 1448 1447 1445 1444 1443 1442 1441 1440 1438 1437 1436 1435 1435 1433 1432 1432 1431 1431 1432 1433 1435 1436 1438 1439 1440
1466 1465 1465 1464 1463 1461 1460 1459 1458 1457 1456 1455 1453 1451 1449 1447 1446 1444 1442 1440 1439 1437 1436 1435 1434 1432 1431 1429 1428 1427 1426 1425 1425 1424 1424 1424 1425 1427 1428 1429 1431 1432 1433
1462 1461 1459 1458 1456 1455 1453 1452 1450 1449 1449 1448 1446 1444 1442 1440 1439 1438 1436 1435 1433 1432 1429 1428 1426 1425 1423 1422 1420 1419 1419 1418 1417 1417 1417 1418 1418 1419 1420 1422 1424 1426 1427
1458 1456 1454 1452 1450 1447 1445 1444 1442 1441 1440 1439 1438 1437 1435 1433 1432 1430 1429 1427 1426 1424 1422 1420 1418 1417 1416 1415 1414 1413 1412 1411 1410 1410 1410 1411 1412 1412 1413 1415 1417 1419 1420
1453 1451 1448 1446 1444 1441 1438 1436 1434 1433 1432 1431 1429 1428 1427 1426 1424 1423 1421 1420 1418 1416 1414 1411 1410 1409 1407 1407 1406 1405 1404 1404 1403 1403 1403 1404 1404 1405 1406 1408 1409 1411 1413
1448 1445 1442 1439 1436 1434 1431 1429 1427 1425 1424 1422 1422 1420 1419 1418 1417 1415 1414 1412 1410 1408 1406 1404 1402 1401 1400 1399 1398 1397 1397 1396 1396 1396 1395 1396 1397 1398 1399 1400 1402 1403 1406
1443 1440 1436 1432 1429 1426 1423 1421 1419 1417 1416 1415 1414 1413 1412 1410 1409 1408 1407 1405 1402 1401 1400 1398 1396 1394 1393 1392 1391 1390 1389 1389 1388 1388 1388 1388 1389 1390 1390 1392 1394 1396 1398
1438 1434 1430 1426 1422 1419 1416 1413 1411 1410 1408 1407 1407 1406 1405 1404 1402 1401 1400 1397 1395 1394 1393 1391 1389 1388 1386 1385 1383 1382 1382 1381 1381 1381 1380 1380 1381 1381 1382 1384 1386 1388 1390
1433 1428 1424 1419 1415 1411 1409 1406 1405 1403 1402 1401 1401 1400 1399 1398 1396 1395 1393 1391 1389 1387 1386 1384 1382 1380 1379 1378 1376 1375 1375 1374 1374 1373 1373 1373 1373 1374 1375 1376 1378 1380 1383
1429 1423 1418 1414 1409 1405 1402 1399 1398 1397 1396 1395 1394 1394 1392 1391 1390 1389 1387 1385 1383 1381 1379 1377 1375 1374 1372 1371 1370 1369 1369 1368 1367 1367 1366 1366 1366 1367 1368 1369 1371 1373 1376
1424 1419 1414 1408 1404 1400 1397 1394 1393 1391 1390 1390 1389 1388 1387 1385 1385 1383 1381 1379 1377 1375 1373 1371 1369 1368 1366 1365 1364 1364 1363 1362 1361 1361 1361 1361 1360 1361 1362 1363 1364 1367 1370
1420 1415 1409 1404 1399 1395 1392 1390 1388 1387 1386 1385 1384 1383 1382 1380 1379 1378 1375 1373 1371 1369 1367 1365 1363 1362 1360 1359 1358 1358 1357 1357 1356 1356 1355 1355 1355 1355 1356 1357 1359 1361 1364
1415 1410 1405 1400 1395 1391 1388 1385 1384 1383 1381 1380 1379 1378 1377 1376 1374 1373 1370 1368 1366 1364 1362 1360 1358 1356 1354 1353 1352 1352 1351 1351 1351 1351 1351 1351 1351 1351 1351 1352 1353 1355 1358
1411 1406 1401 1396 1392 1388 1385 1382 1381 1380 1378 1377 1375 1374 1373 1372 1370 1368 1366 1364 1361 1359 1357 1354 1352 1350 1349 1347 1346 1346 1345 1345 1346 1346 1346 1346 1346 1347 1347 1348 1349 1351 1353